QPF
0.00 0.00 0.00 0.00 0.00 0.00 0.00 0.00 0.00 0.00 0.00 0.00 0.00 0.00 0.01 0.01 0.01 0.01 0.00 0.00 0.01 0.02 0.01 0.01 0.01 0.01 0.01 0.01 0.01 0.01 0.01 0.01 0.01 0.01 0.01 0.01 0.01 0.02 0.01 0.01 0.01 0.01 0.01
0.00 0.00 0.00 0.00 0.00 0.00 0.00 0.00 0.00 0.00 0.00 0.00 0.00 0.00 0.01 0.01 0.01 0.01 0.01 0.01 0.01 0.01 0.02 0.01 0.01 0.01 0.01 0.01 0.01 0.01 0.01 0.01 0.01 0.01 0.01 0.02 0.01 0.02 0.02 0.02 0.01 0.01 0.02
0.00 0.00 0.00 0.00 0.00 0.00 0.00 0.00 0.00 0.00 0.00 0.00 0.00 0.00 0.00 0.01 0.01 0.01 0.01 0.01 0.01 0.01 0.01 0.02 0.01 0.01 0.01 0.01 0.01 0.01 0.01 0.01 0.01 0.01 0.02 0.02 0.02 0.02 0.02 0.02 0.01 0.02 0.03
0.00 0.00 0.00 0.00 0.00 0.00 0.00 0.00 0.00 0.00 0.00 0.00 0.00 0.00 0.00 0.00 0.00 0.01 0.01 0.02 0.02 0.02 0.02 0.02 0.01 0.01 0.01 0.01 0.01 0.01 0.01 0.01 0.01 0.01 0.02 0.02 0.02 0.04 0.02 0.02 0.01 0.01 0.02
0.00 0.00 0.00 0.00 0.00 0.00 0.00 0.00 0.00 0.00 0.00 0.00 0.00 0.00 0.00 0.00 0.00 0.00 0.01 0.01 0.02 0.02 0.02 0.02 0.02 0.02 0.01 0.01 0.01 0.01 0.01 0.01 0.01 0.02 0.02 0.02 0.02 0.03 0.03 0.03 0.03 0.02 0.02
0.00 0.00 0.00 0.00 0.00 0.00 0.00 0.00 0.00 0.00 0.00 0.00 0.00 0.00 0.00 0.00 0.00 0.00 0.00 0.01 0.01 0.02 0.01 0.01 0.02 0.02 0.01 0.01 0.01 0.01 0.01 0.01 0.01 0.02 0.03 0.03 0.02 0.02 0.02 0.04 0.04 0.04 0.03
0.00 0.00 0.00 0.00 0.00 0.00 0.00 0.00 0.00 0.00 0.00 0.00 0.00 0.00 0.00 0.00 0.00 0.00 0.00 0.01 0.01 0.01 0.02 0.02 0.03 0.04 0.03 0.02 0.01 0.01 0.01 0.01 0.01 0.02 0.03 0.02 0.02 0.02 0.02 0.03 0.04 0.04 0.05
0.00 0.00 0.00 0.00 0.00 0.00 0.00 0.00 0.00 0.00 0.00 0.00 0.00 0.00 0.00 0.00 0.00 0.00 0.00 0.00 0.01 0.01 0.01 0.01 0.03 0.03 0.03 0.02 0.01 0.01 0.01 0.01 0.01 0.02 0.02 0.02 0.01 0.01 0.02 0.03 0.03 0.05 0.06
0.00 0.00 0.00 0.00 0.00 0.00 0.00 0.00 0.00 0.00 0.00 0.00 0.00 0.00 0.00 0.00 0.00 0.00 0.00 0.01 0.02 0.02 0.02 0.02 0.02 0.01 0.02 0.01 0.01 0.01 0.01 0.01 0.02 0.02 0.02 0.01 0.01 0.01 0.02 0.03 0.05 0.09 0.08
0.00 0.00 0.00 0.00 0.00 0.00 0.00 0.00 0.00 0.00 0.00 0.00 0.00 0.00 0.00 0.00 0.00 0.00 0.00 0.01 0.01 0.02 0.01 0.01 0.01 0.01 0.01 0.01 0.01 0.01 0.01 0.01 0.01 0.01 0.02 0.01 0.01 0.01 0.01 0.02 0.03 0.03 0.05
0.00 0.00 0.00 0.00 0.00 0.00 0.00 0.00 0.00 0.00 0.00 0.00 0.00 0.00 0.00 0.00 0.00 0.00 0.00 0.00 0.00 0.00 0.00 0.01 0.01 0.01 0.01 0.01 0.02 0.02 0.02 0.02 0.01 0.01 0.01 0.01 0.01 0.01 0.01 0.01 0.02 0.02 0.03
0.00 0.00 0.00 0.00 0.00 0.00 0.00 0.00 0.00 0.00 0.00 0.00 0.00 0.00 0.00 0.00 0.00 0.00 0.00 0.00 0.00 0.00 0.00 0.01 0.01 0.01 0.01 0.01 0.01 0.01 0.01 0.02 0.01 0.01 0.01 0.01 0.01 0.02 0.02 0.02 0.03 0.03 0.03
0.00 0.00 0.00 0.00 0.00 0.00 0.00 0.00 0.00 0.00 0.00 0.00 0.00 0.00 0.00 0.00 0.00 0.00 0.00 0.00 0.00 0.00 0.01 0.01 0.01 0.01 0.01 0.01 0.01 0.01 0.01 0.01 0.01 0.02 0.02 0.01 0.01 0.02 0.02 0.02 0.02 0.02 0.02
0.00 0.00 0.00 0.00 0.00 0.00 0.00 0.00 0.00 0.00 0.00 0.00 0.00 0.00 0.00 0.00 0.00 0.00 0.00 0.00 0.00 0.01 0.01 0.01 0.01 0.01 0.01 0.01 0.02 0.02 0.02 0.02 0.02 0.02 0.02 0.01 0.01 0.02 0.02 0.02 0.02 0.02 0.02
0.00 0.00 0.00 0.00 0.00 0.00 0.00 0.00 0.00 0.00 0.00 0.00 0.00 0.00 0.00 0.00 0.00 0.00 0.00 0.00 0.01 0.01 0.01 0.01 0.01 0.01 0.01 0.01 0.02 0.02 0.02 0.02 0.02 0.02 0.01 0.01 0.02 0.02 0.03 0.03 0.02 0.02 0.02
0.01 0.00 0.00 0.00 0.00 0.00 0.00 0.00 0.00 0.00 0.00 0.00 0.00 0.00 0.00 0.00 0.00 0.00 0.00 0.00 0.01 0.01 0.02 0.03 0.03 0.02 0.02 0.02 0.03 0.02 0.02 0.02 0.02 0.02 0.01 0.01 0.02 0.02 0.02 0.03 0.03 0.03 0.04
0.01 0.01 0.01 0.00 0.00 0.00 0.00 0.00 0.00 0.00 0.00 0.00 0.00 0.00 0.00 0.00 0.00 0.00 0.00 0.01 0.02 0.02 0.03 0.04 0.04 0.03 0.03 0.03 0.03 0.03 0.02 0.02 0.02 0.02 0.02 0.02 0.02 0.02 0.02 0.02 0.03 0.04 0.04
0.00 0.01 0.01 0.01 0.01 0.01 0.00 0.00 0.00 0.00 0.00 0.00 0.00 0.00 0.00 0.00 0.01 0.01 0.02 0.03 0.03 0.04 0.04 0.04 0.05 0.04 0.03 0.03 0.04 0.04 0.03 0.03 0.02 0.02 0.02 0.02 0.02 0.02 0.02 0.02 0.02 0.02 0.02
0.00 0.01 0.01 0.01 0.01 0.01 0.00 0.00 0.00 0.00 0.00 0.00 0.00 0.01 0.01 0.01 0.02 0.02 0.02 0.03 0.03 0.05 0.05 0.04 0.03 0.03 0.03 0.03 0.04 0.04 0.04 0.03 0.03 0.03 0.02 0.02 0.02 0.03 0.03 0.03 0.02 0.02 0.02
0.01 0.01 0.01 0.01 0.01 0.01 0.01 0.01 0.01 0.00 0.01 0.01 0.01 0.01 0.01 0.01 0.01 0.01 0.01 0.01 0.02 0.02 0.02 0.01 0.02 0.02 0.02 0.03 0.04 0.04 0.03 0.03 0.04 0.04 0.03 0.03 0.03 0.04 0.04 0.03 0.03 0.02 0.02
0.01 0.01 0.01 0.01 0.02 0.01 0.01 0.01 0.01 0.01 0.01 0.01 0.01 0.01 0.00 0.00 0.00 0.00 0.01 0.01 0.00 0.00 0.01 0.01 0.02 0.02 0.03 0.04 0.05 0.05 0.04 0.04 0.03 0.03 0.03 0.03 0.03 0.04 0.04 0.03 0.02 0.02 0.02
0.01 0.00 0.00 0.01 0.02 0.01 0.01 0.01 0.01 0.01 0.01 0.01 0.01 0.00 0.00 0.00 0.00 0.00 0.00 0.00 0.01 0.00 0.00 0.01 0.01 0.02 0.04 0.05 0.05 0.06 0.05 0.04 0.04 0.04 0.03 0.03 0.04 0.04 0.03 0.02 0.02 0.02 0.02
0.00 0.00 0.00 0.01 0.01 0.02 0.02 0.02 0.01 0.01 0.01 0.01 0.00 0.00 0.00 0.00 0.00 0.00 0.00 0.00 0.00 0.01 0.01 0.01 0.02 0.03 0.04 0.05 0.07 0.06 0.05 0.04 0.04 0.04 0.04 0.04 0.04 0.03 0.03 0.02 0.02 0.01 0.01
0.00 0.00 0.00 0.00 0.01 0.01 0.02 0.02 0.02 0.01 0.01 0.01 0.01 0.01 0.01 0.01 0.01 0.01 0.01 0.01 0.01 0.02 0.02 0.02 0.02 0.02 0.02 0.03 0.06 0.06 0.05 0.04 0.03 0.03 0.04 0.04 0.03 0.02 0.02 0.02 0.01 0.01 0.01
0.00 0.00 0.00 0.01 0.01 0.01 0.02 0.02 0.02 0.02 0.01 0.01 0.01 0.01 0.01 0.01 0.01 0.01 0.01 0.01 0.01 0.03 0.03 0.03 0.03 0.02 0.03 0.03 0.05 0.06 0.05 0.03 0.03 0.03 0.03 0.03 0.03 0.02 0.02 0.01 0.01 0.01 0.01
0.01 0.01 0.01 0.01 0.01 0.01 0.02 0.02 0.02 0.02 0.02 0.02 0.01 0.01 0.01 0.01 0.01 0.01 0.01 0.02 0.02 0.02 0.03 0.03 0.04 0.04 0.04 0.03 0.04 0.05 0.06 0.05 0.04 0.04 0.03 0.02 0.02 0.03 0.02 0.02 0.02 0.02 0.02
MSLP
1008.91 1009.45 1010.02 1010.64 1011.29 1011.97 1012.67 1013.41 1014.17 1014.95 1015.73 1016.50 1017.21 1017.86 1018.43 1018.91 1019.29 1019.59 1019.83 1020.04 1020.23 1020.42 1020.63 1020.83 1021.02 1021.18 1021.29 1021.34 1021.30 1021.19 1021.01 1020.77 1020.50 1020.19 1019.86 1019.52 1019.15 1018.76 1018.34 1017.90 1017.42 1016.93 1016.41
1008.26 1008.85 1009.47 1010.12 1010.77 1011.45 1012.16 1012.90 1013.69 1014.52 1015.37 1016.21 1017.02 1017.75 1018.38 1018.90 1019.31 1019.63 1019.88 1020.08 1020.27 1020.46 1020.66 1020.86 1021.05 1021.22 1021.35 1021.43 1021.45 1021.41 1021.31 1021.17 1020.98 1020.75 1020.48 1020.15 1019.76 1019.30 1018.78 1018.20 1017.59 1016.95 1016.32
1007.39 1008.05 1008.74 1009.44 1010.14 1010.84 1011.57 1012.34 1013.17 1014.05 1014.96 1015.87 1016.74 1017.54 1018.23 1018.79 1019.23 1019.57 1019.83 1020.04 1020.22 1020.41 1020.61 1020.82 1021.02 1021.20 1021.35 1021.47 1021.53 1021.56 1021.55 1021.50 1021.40 1021.25 1021.03 1020.72 1020.31 1019.80 1019.17 1018.48 1017.73 1016.97 1016.22
1006.34 1007.08 1007.86 1008.63 1009.38 1010.14 1010.91 1011.72 1012.59 1013.52 1014.48 1015.45 1016.38 1017.23 1017.96 1018.56 1019.02 1019.38 1019.65 1019.87 1020.07 1020.27 1020.48 1020.70 1020.91 1021.11 1021.29 1021.43 1021.54 1021.63 1021.69 1021.71 1021.70 1021.62 1021.44 1021.16 1020.74 1020.18 1019.48 1018.69 1017.84 1016.97 1016.12
1005.19 1006.00 1006.85 1007.70 1008.53 1009.35 1010.18 1011.04 1011.96 1012.93 1013.94 1014.94 1015.91 1016.79 1017.56 1018.19 1018.68 1019.06 1019.35 1019.60 1019.82 1020.04 1020.27 1020.51 1020.74 1020.96 1021.16 1021.33 1021.48 1021.60 1021.72 1021.80 1021.84 1021.81 1021.68 1021.42 1021.00 1020.42 1019.68 1018.83 1017.90 1016.95 1016.01
1004.02 1004.88 1005.80 1006.72 1007.62 1008.50 1009.39 1010.30 1011.26 1012.27 1013.31 1014.34 1015.34 1016.24 1017.03 1017.68 1018.20 1018.61 1018.94 1019.22 1019.48 1019.74 1020.00 1020.27 1020.53 1020.77 1020.98 1021.17 1021.34 1021.50 1021.63 1021.75 1021.83 1021.83 1021.74 1021.50 1021.10 1020.52 1019.77 1018.89 1017.92 1016.91 1015.90
1002.93 1003.82 1004.78 1005.75 1006.70 1007.64 1008.57 1009.52 1010.51 1011.55 1012.61 1013.66 1014.67 1015.59 1016.40 1017.07 1017.62 1018.06 1018.44 1018.76 1019.08 1019.39 1019.70 1020.00 1020.29 1020.55 1020.78 1020.98 1021.16 1021.31 1021.46 1021.58 1021.67 1021.70 1021.62 1021.41 1021.04 1020.48 1019.76 1018.88 1017.90 1016.86 1015.79
1002.02 1002.90 1003.87 1004.86 1005.84 1006.80 1007.76 1008.73 1009.74 1010.78 1011.85 1012.91 1013.92 1014.86 1015.68 1016.38 1016.97 1017.46 1017.88 1018.27 1018.64 1019.01 1019.37 1019.72 1020.04 1020.33 1020.57 1020.77 1020.93 1021.07 1021.20 1021.32 1021.40 1021.43 1021.37 1021.19 1020.85 1020.34 1019.65 1018.81 1017.84 1016.79 1015.69
1001.36 1002.20 1003.14 1004.12 1005.08 1006.04 1006.99 1007.96 1008.97 1010.01 1011.07 1012.13 1013.14 1014.08 1014.92 1015.66 1016.28 1016.82 1017.31 1017.76 1018.20 1018.63 1019.04 1019.44 1019.79 1020.10 1020.34 1020.53 1020.67 1020.79 1020.89 1020.98 1021.04 1021.06 1021.01 1020.85 1020.55 1020.10 1019.46 1018.67 1017.74 1016.70 1015.57
1000.99 1001.78 1002.65 1003.57 1004.48 1005.39 1006.31 1007.26 1008.24 1009.26 1010.30 1011.35 1012.36 1013.31 1014.17 1014.93 1015.60 1016.20 1016.75 1017.26 1017.77 1018.26 1018.73 1019.16 1019.54 1019.85 1020.09 1020.27 1020.39 1020.47 1020.53 1020.58 1020.61 1020.62 1020.57 1020.44 1020.18 1019.78 1019.21 1018.48 1017.59 1016.57 1015.44
1000.92 1001.62 1002.40 1003.22 1004.06 1004.90 1005.75 1006.64 1007.58 1008.57 1009.59 1010.61 1011.62 1012.57 1013.45 1014.25 1014.96 1015.61 1016.22 1016.80 1017.36 1017.90 1018.41 1018.87 1019.27 1019.59 1019.82 1019.98 1020.07 1020.11 1020.13 1020.14 1020.14 1020.13 1020.08 1019.96 1019.74 1019.39 1018.88 1018.21 1017.38 1016.39 1015.27
1001.08 1001.68 1002.35 1003.06 1003.79 1004.54 1005.31 1006.14 1007.02 1007.96 1008.95 1009.95 1010.95 1011.90 1012.80 1013.63 1014.38 1015.09 1015.75 1016.38 1016.98 1017.56 1018.11 1018.59 1018.99 1019.31 1019.53 1019.66 1019.72 1019.73 1019.71 1019.68 1019.65 1019.61 1019.55 1019.44 1019.24 1018.93 1018.48 1017.86 1017.08 1016.14 1015.04
1001.36 1001.86 1002.42 1003.01 1003.63 1004.28 1004.98 1005.74 1006.57 1007.46 1008.41 1009.40 1010.38 1011.33 1012.24 1013.10 1013.89 1014.63 1015.33 1016.00 1016.65 1017.25 1017.81 1018.30 1018.71 1019.01 1019.22 1019.33 1019.36 1019.34 1019.28 1019.22 1019.15 1019.08 1019.00 1018.88 1018.69 1018.40 1017.98 1017.41 1016.68 1015.78 1014.73
1001.65 1002.05 1002.51 1003.00 1003.53 1004.09 1004.72 1005.42 1006.20 1007.06 1007.98 1008.95 1009.92 1010.87 1011.79 1012.66 1013.48 1014.26 1014.99 1015.69 1016.35 1016.97 1017.54 1018.03 1018.42 1018.71 1018.90 1018.99 1019.00 1018.95 1018.86 1018.76 1018.66 1018.56 1018.45 1018.30 1018.10 1017.81 1017.40 1016.86 1016.17 1015.32 1014.31
1001.83 1002.17 1002.55 1002.97 1003.42 1003.93 1004.50 1005.16 1005.92 1006.75 1007.66 1008.60 1009.57 1010.52 1011.45 1012.33 1013.17 1013.97 1014.72 1015.44 1016.11 1016.74 1017.30 1017.77 1018.15 1018.43 1018.60 1018.67 1018.66 1018.58 1018.47 1018.34 1018.20 1018.06 1017.90 1017.71 1017.48 1017.17 1016.75 1016.22 1015.55 1014.74 1013.80
1001.86 1002.15 1002.48 1002.85 1003.27 1003.75 1004.31 1004.96 1005.71 1006.53 1007.43 1008.37 1009.33 1010.28 1011.21 1012.10 1012.95 1013.76 1014.53 1015.25 1015.93 1016.55 1017.10 1017.56 1017.92 1018.17 1018.32 1018.38 1018.35 1018.26 1018.12 1017.96 1017.78 1017.59 1017.38 1017.13 1016.84 1016.49 1016.04 1015.49 1014.84 1014.07 1013.19
1001.71 1001.99 1002.31 1002.67 1003.08 1003.57 1004.14 1004.81 1005.56 1006.40 1007.30 1008.24 1009.20 1010.15 1011.07 1011.97 1012.83 1013.64 1014.42 1015.14 1015.81 1016.42 1016.95 1017.39 1017.73 1017.96 1018.09 1018.13 1018.08 1017.97 1017.81 1017.62 1017.40 1017.16 1016.88 1016.58 1016.22 1015.80 1015.30 1014.73 1014.07 1013.33 1012.50
1001.47 1001.76 1002.08 1002.46 1002.91 1003.43 1004.04 1004.74 1005.52 1006.37 1007.28 1008.22 1009.17 1010.12 1011.04 1011.94 1012.79 1013.61 1014.38 1015.10 1015.76 1016.35 1016.86 1017.28 1017.59 1017.80 1017.91 1017.92 1017.86 1017.73 1017.55 1017.33 1017.06 1016.77 1016.43 1016.05 1015.62 1015.13 1014.58 1013.96 1013.29 1012.57 1011.79
1001.24 1001.55 1001.92 1002.34 1002.83 1003.40 1004.06 1004.80 1005.61 1006.48 1007.39 1008.33 1009.27 1010.20 1011.12 1012.00 1012.85 1013.66 1014.42 1015.13 1015.78 1016.35 1016.83 1017.21 1017.49 1017.67 1017.75 1017.74 1017.66 1017.51 1017.31 1017.05 1016.75 1016.41 1016.01 1015.56 1015.06 1014.50 1013.89 1013.24 1012.55 1011.84 1011.11
1001.16 1001.51 1001.92 1002.39 1002.94 1003.56 1004.26 1005.03 1005.86 1006.74 1007.65 1008.57 1009.49 1010.41 1011.30 1012.17 1013.00 1013.80 1014.55 1015.24 1015.86 1016.40 1016.85 1017.19 1017.43 1017.57 1017.62 1017.58 1017.47 1017.30 1017.07 1016.79 1016.45 1016.07 1015.62 1015.12 1014.56 1013.94 1013.29 1012.60 1011.90 1011.19 1010.49
1001.36 1001.75 1002.20 1002.72 1003.31 1003.97 1004.70 1005.49 1006.32 1007.19 1008.08 1008.97 1009.86 1010.74 1011.60 1012.45 1013.26 1014.04 1014.76 1015.42 1016.01 1016.51 1016.91 1017.21 1017.40 1017.49 1017.49 1017.41 1017.27 1017.07 1016.82 1016.51 1016.15 1015.74 1015.26 1014.72 1014.12 1013.47 1012.78 1012.07 1011.36 1010.67 1010.00
1001.89 1002.32 1002.81 1003.37 1003.99 1004.67 1005.40 1006.18 1007.00 1007.83 1008.68 1009.53 1010.37 1011.21 1012.04 1012.84 1013.63 1014.37 1015.06 1015.69 1016.24 1016.68 1017.03 1017.26 1017.39 1017.42 1017.37 1017.24 1017.06 1016.83 1016.55 1016.22 1015.84 1015.41 1014.91 1014.36 1013.74 1013.07 1012.38 1011.67 1010.97 1010.29 1009.65
1002.77 1003.23 1003.75 1004.33 1004.96 1005.64 1006.36 1007.10 1007.87 1008.66 1009.45 1010.24 1011.03 1011.81 1012.60 1013.36 1014.10 1014.81 1015.46 1016.04 1016.53 1016.91 1017.19 1017.35 1017.40 1017.36 1017.24 1017.06 1016.83 1016.56 1016.26 1015.91 1015.52 1015.09 1014.59 1014.03 1013.42 1012.77 1012.08 1011.39 1010.71 1010.06 1009.46
1003.94 1004.44 1004.98 1005.57 1006.19 1006.84 1007.52 1008.21 1008.92 1009.63 1010.35 1011.08 1011.81 1012.54 1013.27 1013.99 1014.68 1015.34 1015.94 1016.46 1016.88 1017.19 1017.39 1017.46 1017.43 1017.31 1017.12 1016.88 1016.60 1016.29 1015.96 1015.60 1015.21 1014.77 1014.29 1013.75 1013.16 1012.53 1011.88 1011.22 1010.58 1009.97 1009.41
1005.33 1005.85 1006.40 1006.98 1007.58 1008.19 1008.81 1009.44 1010.08 1010.72 1011.36 1012.02 1012.69 1013.36 1014.04 1014.70 1015.35 1015.94 1016.48 1016.93 1017.27 1017.50 1017.60 1017.59 1017.48 1017.27 1017.01 1016.70 1016.36 1016.01 1015.65 1015.28 1014.89 1014.47 1014.01 1013.50 1012.95 1012.37 1011.76 1011.14 1010.54 1009.98 1009.46
1006.83 1007.37 1007.93 1008.49 1009.05 1009.60 1010.16 1010.72 1011.28 1011.85 1012.43 1013.02 1013.62 1014.24 1014.86 1015.47 1016.05 1016.59 1017.05 1017.42 1017.67 1017.81 1017.82 1017.72 1017.51 1017.22 1016.89 1016.51 1016.13 1015.75 1015.37 1014.99 1014.60 1014.20 1013.76 1013.29 1012.79 1012.25 1011.69 1011.13 1010.58 1010.07 1009.60
Thickness
5642 5643 5644 5644 5644 5643 5643 5642 5642 5641 5640 5639 5638 5637 5637 5637 5638 5638 5637 5637 5635 5634 5632 5631 5629 5627 5624 5622 5619 5617 5614 5612 5610 5608 5608 5609 5609 5608 5607 5606 5605 5605 5604
5633 5636 5636 5636 5637 5637 5637 5637 5636 5636 5635 5634 5633 5632 5631 5630 5631 5630 5630 5629 5628 5626 5625 5623 5621 5620 5617 5614 5612 5609 5606 5603 5601 5597 5596 5596 5598 5598 5599 5597 5595 5594 5593
5628 5630 5630 5630 5630 5631 5631 5632 5631 5630 5629 5628 5626 5625 5623 5622 5622 5622 5621 5621 5620 5619 5617 5616 5614 5612 5610 5607 5604 5602 5599 5595 5592 5589 5585 5583 5585 5586 5589 5587 5585 5583 5581
5623 5624 5625 5624 5625 5625 5625 5625 5624 5624 5623 5621 5620 5618 5617 5615 5615 5614 5613 5613 5612 5611 5610 5608 5607 5605 5602 5600 5597 5595 5592 5588 5584 5581 5577 5574 5573 5570 5574 5576 5574 5572 5569
5617 5619 5620 5620 5620 5619 5618 5618 5617 5617 5616 5615 5614 5612 5610 5609 5608 5607 5606 5605 5604 5603 5602 5601 5599 5597 5595 5593 5590 5587 5584 5581 5578 5573 5569 5566 5563 5561 5559 5562 5563 5562 5559
5609 5611 5612 5612 5611 5611 5610 5610 5609 5609 5609 5608 5607 5606 5604 5602 5600 5599 5598 5597 5596 5595 5594 5593 5592 5590 5588 5585 5583 5580 5577 5574 5570 5566 5562 5559 5556 5554 5551 5551 5551 5550 5549
5599 5601 5602 5603 5603 5602 5602 5602 5602 5601 5601 5600 5600 5599 5597 5596 5594 5593 5591 5590 5588 5587 5586 5585 5584 5583 5581 5578 5576 5573 5570 5566 5563 5559 5556 5553 5550 5548 5545 5543 5541 5540 5540
5591 5593 5594 5595 5594 5595 5594 5594 5594 5594 5593 5593 5592 5591 5590 5589 5588 5586 5585 5583 5582 5580 5579 5578 5576 5575 5573 5571 5568 5565 5562 5559 5556 5553 5549 5546 5544 5541 5539 5535 5533 5532 5532
5581 5584 5585 5586 5586 5586 5586 5587 5586 5586 5585 5584 5583 5583 5582 5581 5580 5579 5578 5576 5574 5573 5571 5569 5568 5567 5565 5563 5561 5558 5555 5552 5549 5546 5543 5540 5538 5535 5532 5529 5526 5523 5523
5570 5573 5574 5576 5576 5577 5577 5578 5578 5577 5576 5576 5575 5575 5574 5573 5572 5571 5569 5568 5566 5565 5563 5562 5560 5559 5557 5555 5553 5551 5548 5546 5543 5540 5537 5534 5531 5528 5526 5523 5520 5517 5514
5559 5561 5563 5564 5565 5566 5566 5567 5568 5568 5567 5567 5566 5566 5565 5565 5564 5563 5561 5560 5558 5556 5555 5554 5552 5551 5549 5547 5545 5543 5541 5539 5536 5534 5531 5528 5525 5522 5519 5516 5513 5510 5507
5547 5549 5551 5552 5553 5554 5555 5557 5558 5558 5558 5558 5557 5557 5556 5556 5555 5554 5553 5551 5549 5548 5546 5545 5544 5543 5541 5539 5538 5536 5534 5532 5530 5527 5524 5521 5518 5515 5512 5509 5506 5504 5501
5535 5536 5538 5540 5541 5543 5545 5546 5547 5548 5549 5549 5548 5548 5547 5547 5546 5546 5544 5543 5541 5539 5538 5537 5536 5535 5533 5532 5530 5529 5527 5525 5523 5520 5517 5514 5512 5509 5506 5503 5500 5497 5495
5523 5525 5526 5528 5530 5532 5534 5535 5536 5538 5539 5539 5539 5539 5539 5538 5538 5537 5536 5534 5533 5531 5530 5529 5528 5527 5526 5524 5523 5522 5520 5518 5516 5514 5511 5508 5506 5503 5500 5498 5494 5491 5489
5513 5515 5516 5517 5520 5522 5523 5525 5527 5529 5530 5530 5530 5531 5530 5530 5529 5529 5528 5526 5525 5524 5522 5521 5520 5519 5518 5517 5516 5514 5513 5510 5509 5507 5505 5503 5500 5498 5495 5492 5489 5486 5483
5503 5505 5507 5509 5510 5512 5514 5516 5518 5519 5521 5521 5522 5523 5522 5522 5522 5521 5520 5519 5518 5517 5515 5513 5512 5511 5511 5510 5509 5508 5505 5503 5501 5500 5498 5496 5494 5492 5490 5487 5484 5481 5478
5494 5496 5498 5500 5501 5504 5506 5507 5509 5511 5513 5513 5514 5515 5515 5515 5515 5514 5513 5513 5511 5510 5508 5506 5505 5503 5503 5503 5502 5501 5498 5495 5493 5492 5490 5489 5487 5485 5482 5479 5477 5474 5472
5486 5487 5488 5490 5492 5495 5497 5499 5501 5503 5504 5505 5506 5507 5507 5507 5508 5507 5507 5506 5505 5503 5501 5499 5498 5497 5497 5497 5496 5494 5491 5489 5487 5485 5483 5482 5480 5478 5476 5472 5469 5466 5464
5477 5478 5479 5481 5483 5486 5488 5490 5492 5493 5495 5496 5498 5499 5500 5501 5501 5500 5500 5499 5498 5497 5495 5493 5492 5491 5490 5490 5490 5488 5485 5482 5480 5478 5476 5475 5473 5472 5469 5466 5462 5459 5456
5466 5468 5470 5472 5475 5477 5479 5481 5483 5484 5486 5488 5490 5491 5493 5494 5494 5493 5492 5492 5491 5490 5489 5487 5485 5484 5483 5483 5483 5482 5479 5476 5473 5471 5469 5468 5467 5465 5462 5459 5456 5453 5450
5456 5458 5461 5463 5465 5467 5470 5472 5474 5475 5478 5480 5482 5484 5485 5486 5487 5486 5485 5484 5484 5482 5481 5480 5478 5477 5477 5476 5476 5475 5473 5470 5467 5464 5462 5460 5460 5458 5456 5454 5451 5448 5445
5446 5449 5451 5453 5455 5458 5461 5462 5464 5467 5469 5472 5474 5475 5476 5478 5479 5478 5477 5476 5476 5474 5472 5471 5470 5469 5469 5469 5469 5469 5467 5465 5461 5458 5456 5453 5452 5451 5449 5447 5444 5442 5440
5437 5440 5442 5443 5445 5448 5451 5453 5455 5458 5461 5463 5464 5466 5468 5469 5469 5469 5468 5468 5467 5466 5465 5464 5463 5462 5461 5462 5462 5461 5460 5458 5455 5452 5450 5448 5445 5443 5441 5439 5437 5435 5433
5428 5430 5432 5434 5435 5438 5442 5444 5446 5449 5452 5453 5454 5456 5458 5460 5460 5460 5460 5460 5459 5459 5458 5457 5456 5454 5454 5454 5454 5453 5452 5450 5448 5444 5442 5440 5438 5436 5433 5430 5428 5427 5426
5417 5420 5422 5424 5426 5429 5431 5434 5437 5439 5441 5443 5445 5447 5450 5451 5452 5452 5452 5452 5452 5452 5452 5451 5449 5448 5448 5448 5448 5446 5445 5443 5441 5437 5434 5431 5428 5426 5424 5422 5420 5419 5418
5408 5410 5412 5414 5417 5420 5422 5424 5427 5430 5432 5435 5437 5439 5441 5442 5443 5443 5443 5443 5444 5445 5445 5444 5443 5442 5442 5442 5441 5439 5437 5435 5434 5431 5427 5423 5420 5418 5416 5415 5413 5412 5411